| time (UTC) | temp C | wind direction | speed KPH | gust KPH | rain 1hr cm | rain 24hr cm | rain mn cm | humidity % | barometer mb |
| 20260505201006 | 10 | 238 | 3.2 | 14.5 | 0.00 | 0.00 | 0.00 | 43 | 1009.3 |
| 20260505200506 | 10 | 272 | 3.2 | 14.5 | 0.00 | 0.00 | 0.00 | 42 | 1009.2 |
| 20260505200005 | 10 | 307 | 3.2 | 12.9 | 0.00 | 0.00 | 0.00 | 43 | 1009.3 |
| 20260505195505 | 10 | 280 | 4.8 | 14.5 | 0.00 | 0.00 | 0.00 | 43 | 1009.2 |
| 20260505195006 | 10 | 291 | 4.8 | 12.9 | 0.00 | 0.00 | 0.00 | 42 | 1009.3 |
| 20260505194506 | 10 | 302 | 4.8 | 20.9 | 0.00 | 0.00 | 0.00 | 40 | 1009.3 |
| 20260505194006 | 10 | 239 | 6.4 | 20.9 | 0.00 | 0.00 | 0.00 | 40 | 1009.3 |
| 20260505193007 | 10 | 212 | 3.2 | 11.3 | 0.00 | 0.00 | 0.00 | 38 | 1009.3 |
| 20260505192506 | 10 | 243 | 4.8 | 16.1 | 0.00 | 0.00 | 0.00 | 38 | 1009.5 |
| 20260505192006 | 10 | 250 | 3.2 | 12.9 | 0.00 | 0.00 | 0.00 | 41 | 1009.5 |
| 20260505191505 | 10 | 245 | 4.8 | 12.9 | 0.00 | 0.00 | 0.00 | 39 | 1009.4 |
| 20260505191006 | 10 | 318 | 3.2 | 11.3 | 0.00 | 0.00 | 0.00 | 43 | 1009.4 |
| 20260505190006 | 10 | 230 | 3.2 | 16.1 | 0.00 | 0.00 | 0.00 | 41 | 1009.5 |
| 20260505185506 | 10 | 291 | 4.8 | 12.9 | 0.00 | 0.00 | 0.00 | 40 | 1009.5 |
| 20260505185006 | 10 | 221 | 4.8 | 8.0 | 0.00 | 0.00 | 0.00 | 41 | 1009.5 |
| 20260505184506 | 10 | 237 | 3.2 | 12.9 | 0.00 | 0.00 | 0.00 | 43 | 1009.4 |
| 20260505184006 | 9 | 302 | 8.0 | 16.1 | 0.00 | 0.00 | 0.00 | 43 | 1009.5 |
| 20260505183506 | 9 | 226 | 6.4 | 20.9 | 0.00 | 0.00 | 0.00 | 41 | 1009.5 |
| 20260505183007 | 9 | 270 | 4.8 | 14.5 | 0.00 | 0.00 | 0.00 | 43 | 1009.3 |
| 20260505182506 | 9 | 262 | 3.2 | 12.9 | 0.00 | 0.00 | 0.00 | 43 | 1009.4 |
| 20260505182006 | 9 | 305 | 6.4 | 12.9 | 0.00 | 0.00 | 0.00 | 43 | 1009.3 |
| 20260505181006 | 9 | 285 | 4.8 | 14.5 | 0.00 | 0.00 | 0.00 | 41 | 1009.2 |
| 20260505180506 | 10 | 299 | 6.4 | 19.3 | 0.00 | 0.00 | 0.00 | 41 | 1009.2 |
| 20260505180006 | 10 | 253 | 3.2 | 9.7 | 0.00 | 0.00 | 0.00 | 40 | 1009.2 |
| 20260505175506 | 10 | 291 | 3.2 | 9.7 | 0.00 | 0.00 | 0.00 | 40 | 1009.1 |
| 20260505174506 | 9 | 241 | 4.8 | 14.5 | 0.00 | 0.00 | 0.00 | 40 | 1009.1 |
| 20260505174006 | 10 | 299 | 4.8 | 19.3 | 0.00 | 0.00 | 0.00 | 40 | 1009.0 |
| 20260505173506 | 10 | 233 | 4.8 | 14.5 | 0.00 | 0.00 | 0.00 | 41 | 1009.1 |
| 20260505173006 | 9 | 229 | 4.8 | 19.3 | 0.00 | 0.00 | 0.00 | 39 | 1009.0 |
| 20260505172506 | 9 | 260 | 3.2 | 12.9 | 0.00 | 0.00 | 0.00 | 39 | 1009.1 |
| 20260505171506 | 9 | 254 | 3.2 | 11.3 | 0.00 | 0.00 | 0.00 | 40 | 1009.1 |
| 20260505170506 | 10 | 264 | 1.6 | 12.9 | 0.00 | 0.00 | 0.00 | 40 | 1009.1 |
| 20260505170006 | 10 | 258 | 4.8 | 12.9 | 0.00 | 0.00 | 0.00 | 42 | 1009.1 |
| 20260505165506 | 9 | 290 | 4.8 | 12.9 | 0.00 | 0.00 | 0.00 | 45 | 1009.1 |
| 20260505165006 | 8 | 263 | 3.2 | 16.1 | 0.00 | 0.00 | 0.00 | 41 | 1009.2 |
| 20260505164506 | 8 | 257 | 3.2 | 14.5 | 0.00 | 0.00 | 0.00 | 41 | 1009.1 |
| 20260505164006 | 9 | 288 | 4.8 | 16.1 | 0.00 | 0.00 | 0.00 | 42 | 1009.2 |
| 20260505163506 | 9 | 305 | 8.0 | 19.3 | 0.00 | 0.00 | 0.00 | 42 | 1009.1 |
| 20260505163008 | 9 | 276 | 3.2 | 12.9 | 0.00 | 0.00 | 0.00 | 45 | 1009.2 |
| 20260505161506 | 9 | 250 | 3.2 | 9.7 | 0.00 | 0.00 | 0.00 | 41 | 1009.4 |
| 20260505161006 | 9 | 275 | 4.8 | 19.3 | 0.00 | 0.00 | 0.00 | 42 | 1009.4 |
| 20260505160506 | 9 | 305 | 8.0 | 14.5 | 0.00 | 0.00 | 0.00 | 44 | 1009.4 |
| 20260505152006 | 8 | 257 | 3.2 | 4.8 | 0.00 | 0.00 | 0.00 | 47 | 1009.0 |
| 20260505151506 | 8 | 306 | 1.6 | 11.3 | 0.00 | 0.00 | 0.00 | 47 | 1009.0 |
| 20260505151006 | 8 | 302 | 3.2 | 8.0 | 0.00 | 0.00 | 0.00 | 46 | 1009.0 |
| 20260505150506 | 8 | 288 | 1.6 | 11.3 | 0.00 | 0.00 | 0.00 | 51 | 1008.9 |
| 20260505140505 | 7 | 303 | 3.2 | 8.0 | 0.00 | 0.00 | 0.00 | 55 | 1008.8 |
| 20260505125006 | 5 | 304 | 1.6 | 8.0 | 0.00 | 0.00 | 0.00 | 67 | 1008.2 |
| 20260505124506 | 4 | 304 | 1.6 | 8.0 | 0.00 | 0.00 | 0.00 | 68 | 1008.1 |
| 20260505124006 | 4 | 293 | 1.6 | 4.8 | 0.00 | 0.00 | 0.00 | 68 | 1008.1 |
| 20260505123505 | 4 | 274 | 0.0 | 4.8 | 0.00 | 0.00 | 0.00 | 70 | 1008.0 |
| 20260505123006 | 3 | 311 | 1.6 | 4.8 | 0.00 | 0.00 | 0.00 | 70 | 1008.0 |
| 20260505122505 | 3 | 307 | 3.2 | 4.8 | 0.00 | 0.00 | 0.00 | 70 | 1007.9 |
| 20260505122006 | 3 | 307 | 3.2 | 4.8 | 0.00 | 0.00 | 0.00 | 70 | 1007.8 |
| 20260505121506 | 3 | 307 | 1.6 | 4.8 | 0.00 | 0.00 | 0.00 | 71 | 1007.7 |
| 20260505121006 | 3 | 272 | 1.6 | 4.8 | 0.00 | 0.00 | 0.00 | 72 | 1007.7 |
| 20260505120506 | 2 | 272 | 1.6 | 4.8 | 0.00 | 0.00 | 0.00 | 73 | 1007.6 |
| 20260505120006 | 2 | 272 | 0.0 | 4.8 | 0.00 | 0.00 | 0.00 | 74 | 1007.5 |
| 20260505115506 | 2 | 272 | 0.0 | 4.8 | 0.00 | 0.00 | 0.00 | 73 | 1007.4 |
| 20260505114006 | 2 | 272 | 0.0 | 3.2 | 0.00 | 0.00 | 0.00 | 73 | 1007.1 |
| 20260505113506 | 2 | 272 | 0.0 | 3.2 | 0.00 | 0.00 | 0.00 | 73 | 1007.0 |
| 20260505113006 | 2 | 272 | 1.6 | 3.2 | 0.00 | 0.00 | 0.00 | 72 | 1006.8 |
| 20260505112506 | 2 | 272 | 0.0 | 0.0 | 0.00 | 0.00 | 0.00 | 72 | 1006.7 |
| 20260505112006 | 2 | 272 | 0.0 | 1.6 | 0.00 | 0.00 | 0.00 | 72 | 1006.6 |
| 20260505111505 | 2 | 272 | 0.0 | 0.0 | 0.00 | 0.00 | 0.00 | 72 | 1006.5 |
| 20260505111006 | 2 | 272 | 0.0 | 0.0 | 0.00 | 0.00 | 0.00 | 71 | 1006.3 |
| 20260505110506 | 2 | 272 | 0.0 | 0.0 | 0.00 | 0.00 | 0.00 | 71 | 1006.3 |
| 20260505102006 | 2 | 272 | 0.0 | 3.2 | 0.00 | 0.00 | 0.00 | 70 | 1005.8 |
| 20260505101506 | 2 | 272 | 0.0 | 0.0 | 0.00 | 0.00 | 0.00 | 70 | 1005.8 |
| 20260505101006 | 3 | 272 | 0.0 | 0.0 | 0.00 | 0.00 | 0.00 | 70 | 1005.8 |
| 20260505095505 | 3 | 272 | 0.0 | 0.0 | 0.00 | 0.00 | 0.00 | 69 | 1005.8 |
| 20260505095006 | 3 | 272 | 0.0 | 1.6 | 0.00 | 0.00 | 0.00 | 68 | 1005.8 |
| 20260505094005 | 3 | 272 | 0.0 | 0.0 | 0.00 | 0.00 | 0.00 | 68 | 1005.8 |
| 20260505093506 | 3 | 272 | 0.0 | 1.6 | 0.00 | 0.00 | 0.00 | 68 | 1005.7 |
| 20260505092506 | 3 | 272 | 0.0 | 1.6 | 0.00 | 0.00 | 0.00 | 69 | 1005.7 |
| 20260505092006 | 3 | 272 | 0.0 | 0.0 | 0.00 | 0.00 | 0.00 | 69 | 1005.7 |
| 20260505091006 | 3 | 272 | 0.0 | 0.0 | 0.00 | 0.00 | 0.00 | 70 | 1005.6 |
| 20260505084006 | 3 | 272 | 0.0 | 0.0 | 0.00 | 0.00 | 0.00 | 64 | 1005.3 |
| 20260505083006 | 4 | 272 | 0.0 | 0.0 | 0.00 | 0.00 | 0.00 | 64 | 1005.1 |
| 20260505082505 | 4 | 272 | 0.0 | 4.8 | 0.00 | 0.00 | 0.00 | 64 | 1005.0 |
| 20260505082006 | 4 | 272 | 0.0 | 3.2 | 0.00 | 0.00 | 0.00 | 64 | 1004.8 |
| 20260505081506 | 4 | 272 | 0.0 | 3.2 | 0.00 | 0.00 | 0.00 | 63 | 1004.8 |
| 20260505081006 | 4 | 272 | 0.0 | 1.6 | 0.00 | 0.00 | 0.00 | 63 | 1004.8 |
| 20260505080506 | 4 | 272 | 0.0 | 1.6 | 0.00 | 0.00 | 0.00 | 63 | 1004.7 |
| 20260505080006 | 4 | 272 | 0.0 | 1.6 | 0.00 | 0.00 | 0.00 | 62 | 1004.7 |
| 20260505075506 | 4 | 272 | 0.0 | 1.6 | 0.00 | 0.00 | 0.00 | 62 | 1004.7 |
| 20260505075006 | 5 | 272 | 0.0 | 4.8 | 0.00 | 0.00 | 0.00 | 62 | 1004.7 |
| 20260505074505 | 5 | 272 | 0.0 | 1.6 | 0.00 | 0.00 | 0.00 | 62 | 1004.7 |
| 20260505074006 | 5 | 272 | 0.0 | 1.6 | 0.00 | 0.00 | 0.00 | 62 | 1004.6 |
| 20260505073506 | 5 | 272 | 0.0 | 1.6 | 0.00 | 0.00 | 0.00 | 63 | 1004.6 |
| 20260505073006 | 5 | 272 | 0.0 | 3.2 | 0.00 | 0.00 | 0.00 | 62 | 1004.7 |
| 20260505072506 | 5 | 272 | 0.0 | 3.2 | 0.00 | 0.00 | 0.00 | 60 | 1004.6 |
| 20260505072005 | 5 | 272 | 0.0 | 0.0 | 0.00 | 0.00 | 0.00 | 60 | 1004.6 |
| 20260505071506 | 5 | 272 | 0.0 | 3.2 | 0.00 | 0.00 | 0.00 | 60 | 1004.7 |
| 20260505071006 | 5 | 272 | 0.0 | 1.6 | 0.00 | 0.00 | 0.00 | 59 | 1004.6 |
| 20260505070506 | 5 | 272 | 0.0 | 1.6 | 0.00 | 0.00 | 0.00 | 59 | 1004.6 |
| 20260505065505 | 5 | 272 | 0.0 | 0.0 | 0.00 | 0.00 | 0.00 | 59 | 1004.5 |
| 20260505065005 | 5 | 272 | 0.0 | 3.2 | 0.00 | 0.00 | 0.00 | 59 | 1004.5 |
| 20260505064506 | 5 | 272 | 0.0 | 4.8 | 0.00 | 0.00 | 0.00 | 59 | 1004.6 |
| 20260505064006 | 5 | 284 | 0.0 | 3.2 | 0.00 | 0.00 | 0.00 | 59 | 1004.5 |
| 20260505063005 | 5 | 305 | 0.0 | 1.6 | 0.00 | 0.00 | 0.00 | 59 | 1004.5 |
| 20260505062505 | 5 | 305 | 0.0 | 1.6 | 0.00 | 0.00 | 0.00 | 58 | 1004.5 |
| 20260505062006 | 5 | 305 | 0.0 | 1.6 | 0.00 | 0.00 | 0.00 | 58 | 1004.5 |
| 20260505061005 | 6 | 305 | 0.0 | 0.0 | 0.00 | 0.00 | 0.00 | 57 | 1004.4 |
| 20260505060506 | 6 | 305 | 1.6 | 4.8 | 0.00 | 0.00 | 0.00 | 57 | 1004.4 |
| 20260505060006 | 6 | 305 | 1.6 | 4.8 | 0.00 | 0.00 | 0.00 | 56 | 1004.4 |
| 20260505055505 | 6 | 305 | 0.0 | 4.8 | 0.00 | 0.00 | 0.00 | 57 | 1004.4 |
| 20260505055005 | 6 | 305 | 0.0 | 4.8 | 0.00 | 0.00 | 0.00 | 56 | 1004.4 |
| 20260505054505 | 6 | 305 | 0.0 | 4.8 | 0.00 | 0.00 | 0.00 | 56 | 1004.4 |
| 20260505054005 | 6 | 305 | 1.6 | 4.8 | 0.00 | 0.00 | 0.00 | 56 | 1004.4 |
| 20260505053506 | 6 | 305 | 0.0 | 4.8 | 0.00 | 0.00 | 0.00 | 56 | 1004.3 |
| 20260505053006 | 6 | 256 | 0.0 | 1.6 | 0.00 | 0.00 | 0.00 | 55 | 1004.3 |
| 20260505052506 | 6 | 256 | 0.0 | 0.0 | 0.00 | 0.00 | 0.00 | 55 | 1004.3 |
| 20260505052006 | 6 | 256 | 0.0 | 3.2 | 0.00 | 0.00 | 0.00 | 54 | 1004.3 |
| 20260505051506 | 6 | 232 | 0.0 | 3.2 | 0.00 | 0.00 | 0.00 | 55 | 1004.3 |
| 20260505050506 | 6 | 306 | 0.0 | 1.6 | 0.00 | 0.00 | 0.00 | 54 | 1004.2 |
| 20260505041506 | 7 | 289 | 0.0 | 3.2 | 0.00 | 0.00 | 0.00 | 50 | 1004.3 |
| 20260505041006 | 7 | 289 | 0.0 | 3.2 | 0.00 | 0.00 | 0.00 | 51 | 1004.3 |
| 20260505040506 | 7 | 289 | 0.0 | 3.2 | 0.00 | 0.00 | 0.00 | 50 | 1004.3 |
| 20260505040005 | 7 | 268 | 1.6 | 3.2 | 0.00 | 0.00 | 0.00 | 49 | 1004.2 |
| 20260505035505 | 7 | 265 | 3.2 | 8.0 | 0.00 | 0.00 | 0.00 | 49 | 1004.2 |
| 20260505035006 | 7 | 290 | 1.6 | 8.0 | 0.00 | 0.00 | 0.00 | 49 | 1004.3 |
| 20260505034506 | 7 | 298 | 1.6 | 4.8 | 0.00 | 0.00 | 0.00 | 49 | 1004.3 |
| 20260505034006 | 7 | 288 | 1.6 | 11.3 | 0.00 | 0.00 | 0.00 | 50 | 1004.2 |
| 20260505033505 | 7 | 304 | 3.2 | 8.0 | 0.00 | 0.00 | 0.00 | 50 | 1004.2 |
| 20260505033006 | 8 | 302 | 6.4 | 12.9 | 0.00 | 0.00 | 0.00 | 50 | 1004.2 |
| 20260505032505 | 8 | 295 | 3.2 | 11.3 | 0.00 | 0.00 | 0.00 | 50 | 1004.2 |
| 20260505032005 | 8 | 288 | 3.2 | 12.9 | 0.00 | 0.00 | 0.00 | 50 | 1004.1 |
| 20260505030506 | 8 | 296 | 3.2 | 14.5 | 0.00 | 0.00 | 0.00 | 49 | 1004.1 |
| 20260505030006 | 8 | 276 | 4.8 | 11.3 | 0.00 | 0.00 | 0.00 | 49 | 1003.9 |
| 20260505025505 | 9 | 276 | 4.8 | 16.1 | 0.00 | 0.00 | 0.00 | 49 | 1003.7 |
| 20260505025006 | 9 | 295 | 4.8 | 12.9 | 0.00 | 0.00 | 0.00 | 48 | 1003.7 |
| 20260505024505 | 9 | 299 | 4.8 | 16.1 | 0.00 | 0.00 | 0.00 | 48 | 1003.5 |
| 20260505024006 | 9 | 287 | 4.8 | 14.5 | 0.00 | 0.00 | 0.00 | 48 | 1003.4 |
| 20260505023505 | 9 | 312 | 3.2 | 12.9 | 0.00 | 0.00 | 0.00 | 48 | 1003.2 |
| 20260505023006 | 9 | 300 | 4.8 | 12.9 | 0.00 | 0.00 | 0.00 | 48 | 1003.1 |
| 20260505022506 | 9 | 303 | 3.2 | 11.3 | 0.00 | 0.00 | 0.00 | 48 | 1003.0 |
| 20260505022006 | 9 | 302 | 3.2 | 11.3 | 0.00 | 0.00 | 0.00 | 48 | 1002.9 |
| 20260505021505 | 10 | 298 | 4.8 | 8.0 | 0.00 | 0.00 | 0.00 | 47 | 1002.7 |
| 20260505020006 | 10 | 297 | 4.8 | 12.9 | 0.00 | 0.00 | 0.00 | 47 | 1002.4 |
| 20260505015505 | 10 | 305 | 4.8 | 12.9 | 0.00 | 0.00 | 0.00 | 47 | 1002.3 |
| 20260505015006 | 10 | 304 | 4.8 | 14.5 | 0.00 | 0.00 | 0.00 | 47 | 1002.2 |
| 20260505014506 | 10 | 301 | 4.8 | 12.9 | 0.00 | 0.00 | 0.00 | 47 | 1002.1 |
| 20260505014006 | 10 | 304 | 4.8 | 12.9 | 0.00 | 0.00 | 0.00 | 46 | 1002.1 |
| 20260505013505 | 10 | 277 | 6.4 | 19.3 | 0.00 | 0.00 | 0.00 | 47 | 1001.9 |
| 20260505013005 | 10 | 304 | 3.2 | 11.3 | 0.00 | 0.00 | 0.00 | 46 | 1001.8 |
| 20260505012506 | 10 | 290 | 6.4 | 14.5 | 0.00 | 0.00 | 0.00 | 46 | 1001.7 |
| 20260505012005 | 11 | 320 | 4.8 | 12.9 | 0.00 | 0.00 | 0.00 | 45 | 1001.6 |
| 20260505011506 | 11 | 294 | 4.8 | 14.5 | 0.00 | 0.00 | 0.00 | 46 | 1001.5 |
| 20260505011005 | 11 | 293 | 6.4 | 16.1 | 0.00 | 0.00 | 0.00 | 45 | 1001.4 |
| 20260505010506 | 11 | 306 | 4.8 | 14.5 | 0.00 | 0.00 | 0.00 | 45 | 1001.2 |
| 20260505010005 | 11 | 292 | 6.4 | 19.3 | 0.00 | 0.00 | 0.00 | 45 | 1001.1 |
| 20260505005505 | 11 | 294 | 8.0 | 20.9 | 0.00 | 0.00 | 0.00 | 45 | 1001.1 |
| 20260505005006 | 11 | 259 | 4.8 | 14.5 | 0.00 | 0.00 | 0.00 | 45 | 1000.9 |
| 20260505003505 | 12 | 270 | 4.8 | 19.3 | 0.00 | 0.00 | 0.00 | 44 | 1000.7 |
| 20260505003006 | 12 | 300 | 4.8 | 16.1 | 0.00 | 0.00 | 0.00 | 45 | 1000.5 |
| 20260505002506 | 12 | 268 | 4.8 | 12.9 | 0.00 | 0.00 | 0.00 | 44 | 1000.5 |
| 20260505001506 | 12 | 313 | 1.6 | 8.0 | 0.00 | 0.00 | 0.00 | 46 | 1000.4 |
| 20260505001005 | 12 | 299 | 4.8 | 16.1 | 0.00 | 0.00 | 0.00 | 44 | 1000.4 |
| 20260505000505 | 12 | 302 | 9.7 | 19.3 | 0.00 | 0.00 | 0.00 | 43 | 1000.4 |
| 20260505000005 | 13 | 250 | 4.8 | 19.3 | 0.00 | 0.00 | 0.00 | 43 | 1000.3 |
| 20260504235505 | 13 | 296 | 8.0 | 20.9 | 0.00 | 0.00 | 0.00 | 42 | 1000.3 |
| 20260504235006 | 13 | 264 | 6.4 | 19.3 | 0.00 | 0.00 | 0.00 | 42 | 1000.2 |
| 20260504234506 | 13 | 305 | 3.2 | 16.1 | 0.00 | 0.00 | 0.00 | 43 | 1000.1 |
| 20260504234006 | 13 | 298 | 4.8 | 24.1 | 0.00 | 0.00 | 0.00 | 42 | 1000.0 |
| 20260504233505 | 13 | 272 | 8.0 | 14.5 | 0.00 | 0.00 | 0.00 | 41 | 1000.1 |
| 20260504233006 | 13 | 275 | 8.0 | 27.4 | 0.00 | 0.00 | 0.00 | 42 | 1000.0 |
| 20260504232506 | 14 | 304 | 3.2 | 19.3 | 0.00 | 0.00 | 0.00 | 41 | 999.9 |
| 20260504232006 | 14 | 285 | 9.7 | 19.3 | 0.00 | 0.00 | 0.00 | 40 | 999.8 |
| 20260504231505 | 15 | 293 | 11.3 | 25.7 | 0.00 | 0.00 | 0.00 | 40 | 999.6 |
| 20260504231006 | 15 | 283 | 4.8 | 14.5 | 0.00 | 0.00 | 0.00 | 39 | 999.6 |
| 20260504230505 | 15 | 283 | 8.0 | 16.1 | 0.00 | 0.00 | 0.00 | 40 | 999.5 |
| 20260504230006 | 15 | 263 | 6.4 | 12.9 | 0.00 | 0.00 | 0.00 | 39 | 999.5 |
| 20260504225506 | 15 | 259 | 3.2 | 12.9 | 0.00 | 0.00 | 0.00 | 41 | 999.3 |
| 20260504224005 | 15 | 282 | 4.8 | 16.1 | 0.00 | 0.00 | 0.00 | 38 | 999.2 |
| 20260504223506 | 15 | 244 | 4.8 | 29.0 | 0.00 | 0.00 | 0.00 | 38 | 999.1 |
| 20260504223005 | 15 | 301 | 8.0 | 29.0 | 0.00 | 0.00 | 0.00 | 38 | 999.1 |
| 20260504222505 | 15 | 241 | 9.7 | 22.5 | 0.00 | 0.00 | 0.00 | 37 | 999.0 |
| 20260504222006 | 15 | 277 | 9.7 | 27.4 | 0.00 | 0.00 | 0.00 | 37 | 998.6 |
| 20260504221006 | 16 | 281 | 11.3 | 22.5 | 0.00 | 0.00 | 0.00 | 37 | 998.5 |
| 20260504220505 | 16 | 297 | 6.4 | 19.3 | 0.00 | 0.00 | 0.00 | 38 | 998.4 |
| 20260504220005 | 16 | 207 | 3.2 | 9.7 | 0.00 | 0.00 | 0.00 | 37 | 998.4 |
| 20260504215506 | 16 | 227 | 6.4 | 16.1 | 0.00 | 0.00 | 0.00 | 37 | 998.3 |
| 20260504214505 | 16 | 298 | 4.8 | 24.1 | 0.00 | 0.00 | 0.00 | 39 | 998.2 |
| 20260504214005 | 16 | 217 | 4.8 | 12.9 | 0.00 | 0.00 | 0.00 | 40 | 998.3 |
| 20260504213505 | 16 | 268 | 4.8 | 14.5 | 0.00 | 0.00 | 0.00 | 38 | 998.4 |
| 20260504213005 | 16 | 242 | 8.0 | 22.5 | 0.00 | 0.00 | 0.00 | 39 | 998.4 |
| 20260504212005 | 16 | 273 | 6.4 | 19.3 | 0.00 | 0.00 | 0.00 | 36 | 998.6 |
| 20260504211505 | 16 | 261 | 9.7 | 29.0 | 0.00 | 0.00 | 0.00 | 34 | 998.4 |
| 20260504211006 | 16 | 251 | 8.0 | 20.9 | 0.00 | 0.00 | 0.00 | 34 | 998.4 |
| 20260504210506 | 16 | 277 | 11.3 | 25.7 | 0.00 | 0.00 | 0.00 | 32 | 998.4 |
| 20260504210005 | 17 | 265 | 8.0 | 22.5 | 0.00 | 0.00 | 0.00 | 33 | 998.2 |
| 20260504205505 | 17 | 241 | 8.0 | 19.3 | 0.00 | 0.00 | 0.00 | 34 | 998.2 |
| 20260504205006 | 17 | 252 | 6.4 | 20.9 | 0.00 | 0.00 | 0.00 | 31 | 998.0 |
| 20260504204006 | 17 | 262 | 8.0 | 24.1 | 0.00 | 0.00 | 0.00 | 31 | 997.9 |
| 20260504203506 | 17 | 266 | 8.0 | 24.1 | 0.00 | 0.00 | 0.00 | 30 | 997.9 |
| 20260504203006 | 17 | 312 | 8.0 | 27.4 | 0.00 | 0.00 | 0.00 | 31 | 997.9 |
| 20260504202506 | 17 | 298 | 9.7 | 22.5 | 0.00 | 0.00 | 0.00 | 32 | 997.7 |
| 20260504202005 | 17 | 286 | 9.7 | 22.5 | 0.00 | 0.00 | 0.00 | 35 | 997.7 |
| 20260504201506 | 17 | 245 | 4.8 | 19.3 | 0.00 | 0.00 | 0.00 | 33 | 997.7 |